{"data":{"norad_id":45187,"epoch":"2026-09-19T11:30:06.363648Z","epoch_age_seconds":102591,"freshness":"FRESH","line1":"1 45187U 20012K   26262.47924032  .00042460  00000+0  94548-3 0  9997","line2":"2 45187  53.1514 211.8186 0001713  91.7898 268.3305 15.43224302364711","mean_motion":15.43224302,"eccentricity":0.0001713,"inclination_deg":53.1514,"raan_deg":211.8186,"arg_perigee_deg":91.7898,"mean_anomaly_deg":268.3305,"bstar":0.00094548,"rev_number":36471,"period_min":93.311127755944,"perigee_km":435.43324700777,"apogee_km":437.76797611349,"semimajor_km":6814.7376115606,"source":"CELESTRAK","updated_at":"2026-09-20T09:00:38.226222Z"}}